Erie International Tom Ridge Field
KERI : rendu visible

Aérodrome :











RETROUVEZ-NOUS SUR...

 
LOGIN :

S'inscrire | Disclaimer

   EN    FR    IT 

 









Légende :    VFR   VFR Marginal   IFR   IFR Intensif   IFR Très Intensif
Visi : 
Plafond : 
>= 8 km
>= 3000ft
5 à 8 km
1000 à 3000 ft
1500m à 5 km
500 à 1000 ft
800 à 1500m
200 à 500 ft
< 800m
< 200 ft
Symboles :   Orages  Brouillard  Fortes neiges  Fortes précipitations  Vent > 20 kt






- Altitude de l'aérodrome : 733 ft
- Code IATA : ERI


KERI - Erie International Tom Ridge Field

DERNIER METAR :
  • 031351Z 28008KT 10SM CLR 28/18 A2999 RMK AO2 SLP150 T02780178

METARs EXPIRÉS :
  • 031251Z 24005KT 10SM CLR 26/18 A2998 RMK AO2 SLP148 T02610183
  • 031151Z AUTO 21005KT 10SM CLR 24/18 A2999 RMK AO2 SLP148 T02390178 10239 20200 51006

TAF KERI
Valide du 03 à 12h jusqu'au 04 à 12h UTC


031134Z 0312/0412 19005KT P6SM SKC
FM031400 29008KT P6SM SCT250
FM040200 35004KT P6SM SCT050
FIR KZOB / Amérique du Nord



MET'MAP, la Météo Aéronautique d'un coup d'oeil ! - Copyright ORBIFLY Décembre 2007 - Disclaimer

ORBIFLY MET'MAP TEAM :

Programmation & Développement : Alexandra Zaïnal
Sur une idée originale de : Baudouin d'Aumeries
Assistance à la programmation : Marc-Olivier Méhu
Soutien technique & logistique : Manuel Goepfert

Contact : metmap@orbifly.com




SOURCES & CREDITS :

   NOAA       Earth
Advisory